Погода в Казаново

Россия / Забайкальский край     51°46′22″N   115°51′48″E
темп.,
°C
ветер,
м/с
пор.,
м/с
влажн.,
%
обл.,
%
осадки,
мм/ч
давл.,
гПа
погр.,
м
28 ноября, вс
вс2800:00−12ссз1195100 0.0 103021
03:00−12ссз1195100 0.0 103013
06:00−12ссз1194100 0.0 103013
09:00−12ссз2292100 0.0 103116
12:00−9ссз1268100 0.0 1030139
15:00−9ссз12733 0.0 1029125
18:00−15зюз11905 0.0 103210
21:00−18зюз11945 0.0 103310
29 ноября, пн
пн2900:00−19зюз11965 0.0 103410
03:00−20юз11986 0.0 103411
06:00−19ююз229496 0.0 103237
09:00−19ююз1296100 0.0 103220
12:00−15ююз1280100 0.0 1030123
15:00−12ююз127657 0.0 1028196
18:00−18ю229426 0.0 103012
21:00−19ююз22965 0.0 103015
30 ноября, вт
вт3000:00−20ююз229810 0.0 103013
03:00−21ююз119814 0.0 102912
06:00−21ююз119918 0.0 102912
09:00−22ююз119930 0.0 102912
12:00−14з118712 0.0 1026105
15:00−11юз12845 0.0 1024108
18:00−17ююз11955 0.0 102610
21:00−20ю119812 0.0 102810
1 декабря, ср
ср100:00−20ююз229915 0.0 102812
03:00−18ю2297100 0.0 102545
06:00−16ю3395100 0.0 102267
09:00−14ю3496100 0.1 101882
12:00−11ю239091 0.1 1014133
15:00−4зсз7127541 0.1 1008678
18:00−7з51083100 0.0 1008185
21:00−6сз4987100 0.4 1007302
2 декабря, чт
чт200:00−9сз4107734 0.1 1009159
03:00−8ссз61369100 0.1 1011682
06:00−12сз487070 0.0 1014144
09:00−15зсз35741 0.0 101872
12:00−10зсз38646 0.0 1019354
15:00−9з47655 0.0 1018342
18:00−16юз228447 0.0 102013
21:00−15ююз3386100 0.0 101735